Regional Weather Roundup
Issued by NWS Wilmington, NC

Home | Current Version | Previous Version | Text Only | Print | Product List | Glossary On
Versions: 1 2 3 4 5 6 7 8 9 10 11 12 13 14 15 16 17 18 19 20 21 22 23 24 25 26 27 28 29 30 31 32 33 34 35 36 37 38 39 40 41 42 43 44 45 46 47 48 49 50
000
ASUS42 KILM 030713
RWRILM
RWRILM
REGIONAL HOURLY WEATHER ROUNDUP
NATIONAL WEATHER SERVICE WILMINGTON NC
300 AM EDT WED JUN 03 2015

NOTE: "FAIR" INDICATES FEW OR NO CLOUDS BELOW 12,000 FEET WITH NO
SIGNIFICANT WEATHER AND/OR OBSTRUCTIONS TO VISIBILITY.

...............WFO WILMINGTON COUNTY WARNING AREA...............

......COASTAL NC AND SC COUNTIES......

CITY           SKY/WX    TMP DP  RH WIND       PRES   REMARKS
WILMINGTON     CLOUDY    73  68  84 CALM      29.97S
N MYRTLE BEACH LGT RAIN  68  65  90 N7        29.97F
MYRTLE BEACH   CLOUDY    70  63  78 N20       29.97F THUNDER

......INLAND NC AND SC COUNTIES.......

CITY           SKY/WX    TMP DP  RH WIND       PRES   REMARKS
LUMBERTON      RAIN      67  65  93 E8        29.96F
ELIZABETHTOWN  HVY RAIN  66  66 100 N6        30.01R
WHITEVILLE     LGT RAIN  67  65  94 CALM      29.97F
FLORENCE       CLOUDY    67  65  93 SE5       29.97F
DARLINGTON     CLOUDY    66  63  88 NW6       29.98F

....................REST OF NORTH CAROLINA......................

.........EASTERN NC.........

CITY           SKY/WX    TMP DP  RH WIND       PRES   REMARKS
CAPE HATTERAS  MOCLDY    70  66  87 CALM      29.99F
JACKSONVILLE   CLOUDY    68  64  88 W8        29.99R
MOREHEAD CITY  CLOUDY    74  67  78 E5        29.98S
KENANSVILLE    LGT RAIN  69  68  97 CALM      30.01R
NEW BERN       CLOUDY    69  67  93 CALM      29.99F
ELIZABETH CITY CLOUDY    67  66  97 N12       30.02S FOG

.........CENTRAL NC.........

CITY           SKY/WX    TMP DP  RH WIND       PRES   REMARKS
RALEIGH DURHAM CLOUDY    67  65  93 CALM      30.00F
ROCKY MOUNT    CLOUDY    70  69  97 NE6       30.00F
ROANOKE RAPIDS NOT AVBL
FAYETTEVILLE   RAIN      67  65  93 E8        29.98F
HOFFMAN        CLOUDY    66  65  97 NW7       30.02S

.........WESTERN NC.........

CITY           SKY/WX    TMP DP  RH WIND       PRES   REMARKS
CHARLOTTE      CLOUDY    65  61  87 CALM      30.00S
GREENSBORO     CLOUDY    64  62  93 NE9       30.02F
HICKORY        NOT AVBL
BOONE          NOT AVBL
ASHEVILLE      NOT AVBL

.....................REST OF SOUTH CAROLINA.....................

.........EASTERN SC.........

CITY           SKY/WX    TMP DP  RH WIND       PRES   REMARKS
CHARLESTON     TSTM      71  67  87 N6        29.94F
BEAUFORT MCAS  CLOUDY    71  69  93 CALM      29.94F THUNDER
HILTON HEAD      N/A    N/A N/A N/A MISG        N/A

.........CENTRAL SC.........

CITY           SKY/WX    TMP DP  RH WIND       PRES   REMARKS
COLUMBIA       CLOUDY    69  65  86 CALM      29.94F
ORANGEBURG     CLOUDY    68  66  93 CALM      29.95F
SUMTER SHAW    CLOUDY    65  62  87 E5        29.95F

.........WESTERN SC.........

CITY           SKY/WX    TMP DP  RH WIND       PRES   REMARKS
GREENVILLE     NOT AVBL
ROCK HILL      CLOUDY    64  64 100 N3        30.00F
ANDERSON       CLOUDY    66  63  90 N5        29.99S
CLEMSON        NOT AVBL
GREENWOOD      RAIN      65  64  97 W8        30.02S FOG


...................COASTAL AND OFFSHORE REPORTS..................

................LOCAL PIERS AND NC RESERVE................


STATION/POSITION TIME  SKY/WX   TEMP    WIND        PRES    VSBY
                                AIR SEA DIR/SP/G
                 (UTC)          (F)     (DEG/KT/KT) (MB)    (MI)
JOHNY MRCER PIER 0600            73 79              1014.6F
NC RESRV MASNBRO NOT AVBL
OCEAN CREST PIER 0702            74 82  260/ 11/ 12 1013.5F
SPRINGMAID  PIER 0600            75 78              1014.5F


................COASTAL AND OFFSHORE BUOYS................


STATION/POSITION TIME  SKY/WX   TEMP    WIND        PRES    VSBY
                                AIR SEA DIR/SP/G
                 (UTC)          (F)     (DEG/KT/KT) (MB)    (MI)
DIMNDSHOAL 41025 0650            74 80  280/ 12/ 16 1015.6F
WVE H/P(F/S)=  3/ 8 WND WVE H/P(F/S)=  2/ 5 SWL H/P/D(F/S/D)=  2/100/ 8

CAPE LOOKOUT     0700            76      80/  6/  7 1014.9F
ONSLOW BAY 41036 NOT AVBL
5 WRITEBCH 41038 0608            78 78  190/ 10/ 14 1014.8F
MASONBORO  41110 0619               78                N/A
WVE H/P(F/S)=  2/ 8 WND WVE H/P(F/S)=  2/ 8

WILM HARBR 41108 0611               79                N/A
WVE H/P(F/S)=  2/ 8 WND WVE H/P(F/S)=  2/ 8

27WRITEBCH 41037 0600               78  200/  6/  8   N/A
FRYING PAN 41013 0650            79 77  180/ 10/ 19 1015.2F
WVE H/P(F/S)=  3/ 8 WND WVE H/P(F/S)=  2/ 5 SWL H/P/D(F/S/D)=  2/110/ 8

SUNST NRSH 41024 0608            73     290/ 14/ 17 1014.7F
CAPRS NRSH 41029 0608            79     230/ 10/ 14 1014.4F
EDISTO     41004 0650            74 80  180/  4/  6 1014.5S
WVE H/P(F/S)=  3/ 8 WND WVE H/P(F/S)=  2/ 4 SWL H/P/D(F/S/D)=  2/ 8



..........OFFSHORE BUOYS BEYOND 100 NM OFFSHORE...........
.....IN A TRIANGLE---HAT TO BERMUDA TO BAHAMAS TO HAT.....


STATION/POSITION TIME  SKY/WX   TEMP    WIND        PRES    VSBY
                                AIR SEA DIR/SP/G
                 (UTC)          (F)     (DEG/KT/KT) (MB)    (MI)
150E HAT   41001 NOT AVBL
W BERMUDA  41048 0650            75 77  130/  6/  8 1018.1S
WVE H/P(F/S)=  3/ 8 SWL H/P/D(F/S/D)=  3/110/ 8

ATLANTIC S 41049 0650            77 79  150/ 10/ 12 1018.3R
WVE H/P(F/S)=  4/ 8 WND WVE H/P(F/S)=  2/ 4 SWL H/P/D(F/S/D)=  3/100/ 8

E BAHAMAS  41046 0650            81 82   90/ 10/ 12 1015.8F
WVE H/P(F/S)=  4/ 9 WND WVE H/P(F/S)=  2/ 3 SWL H/P/D(F/S/D)=  3/110/ 9

NE BAHAMAS 41047 0650            79 81  140/ 10/ 12 1015.9F
WVE H/P(F/S)=  3/ 6 WND WVE H/P(F/S)=  2/ 4 SWL H/P/D(F/S/D)=  3/110/ 6

120E CANVRL41010 0620            79 80  140/  4/  6 1015.1F

END


USA.gov is the U.S. government's official web portal to all federal, state and local government web resources and services.